Location: Unspecified
(44.4377°N, 88.0525°W)
Time: 20:02:39
(UTC-05:00)

Okean 3 - Visible Passes

Search period start: 27 August 2014 00:00
Search period end: 06 September 2014 00:00
Orbit: 583 x 611 km, 82.5° (Epoch: 25 August)

Date Brightness Start Highest point End Pass type
(mag) Time Alt. Az. Time Alt. Az. Time Alt. Az.
27 Aug 5.6 04:07:43 10° SE 04:11:07 24° E 04:14:31 10° NE visible
28 Aug 4.8 04:17:29 10° SSE 04:21:21 37° E 04:25:15 10° NNE visible
29 Aug 3.9 04:27:56 13° S 04:31:39 60° E 04:35:48 10° NNE visible
30 Aug 3.3 04:38:54 18° S 04:41:59 85° W 04:46:12 10° N visible
31 Aug 6.2 03:13:26 10° ESE 03:15:28 13° E 03:17:30 10° NE visible
31 Aug 3.6 04:49:49 22° SSW 04:52:22 53° WNW 04:56:30 10° N visible
01 Sep 5.7 03:23:58 16° ESE 03:25:38 21° E 03:28:45 10° NE visible
01 Sep 4.2 05:00:41 21° SW 05:02:48 33° WNW 05:06:39 10° N visible
02 Sep 5.0 03:34:47 27° ESE 03:35:51 31° E 03:39:34 10° NNE visible
02 Sep 4.8 05:11:30 17° WSW 05:13:17 22° WNW 05:16:37 10° NNW visible
03 Sep 4.1 03:45:34 46° ESE 03:46:06 50° E 03:50:11 10° NNE visible
03 Sep 5.3 05:22:17 13° W 05:23:50 15° WNW 05:26:16 10° NNW visible
04 Sep 3.4 03:56:18 80° ESE 03:56:24 80° E 04:00:38 10° N visible
05 Sep 6.4 02:30:18 11° ENE 02:30:18 11° ENE 02:31:12 10° ENE visible
05 Sep 3.5 04:07:01 62° WNW 04:07:01 62° WNW 04:10:57 10° N visible
